,,,PA_Meas_PMT16A,,PR_Meas_QMR101_102,,RH_Meas_QMH101,,SR_Meas_QMS101,,TA_Meas_QMH101,,GenWind,,GenWind,
date,time,status,PA,status,PR,status,RH,status,SR,status,TA,status,DirAvg,status,SpdAvg,
2014-04-20, 00:00:05,VALID,1009.54,VALID,0,INVALID,111.077,VALID,0,VALID,23.7135,VALID,203,VALID,0,
2014-04-20, 00:01:05,VALID,1009.51,VALID,0,INVALID,111.054,VALID,0,VALID,23.7135,VALID,203,VALID,0,
2014-04-20, 00:02:05,VALID,1009.52,VALID,0,INVALID,111.061,VALID,0,VALID,23.7135,VALID,203,VALID,0,
2014-04-20, 00:03:05,VALID,1009.48,VALID,0,INVALID,111.039,VALID,0,VALID,23.7135,VALID,203,VALID,0,
2014-04-20, 00:04:05,VALID,1009.51,VALID,0,INVALID,111.061,VALID,0,VALID,23.6922,VALID,203,VALID,0,
2014-04-20, 00:05:05,VALID,1009.48,VALID,0,INVALID,111.039,VALID,0,VALID,23.733,VALID,203,VALID,0,
2014-04-20, 00:06:05,VALID,1009.48,VALID,0,INVALID,111.008,VALID,0,VALID,23.7135,VALID,203,VALID,0,
2014-04-20, 00:07:05,VALID,1009.47,VALID,0,INVALID,111.016,VALID,0,VALID,23.7135,VALID,203,VALID,0,
2014-04-20, 00:08:05,VALID,1009.46,VALID,0,INVALID,111.054,VALID,0,VALID,23.7135,VALID,203,VALID,0,
2014-04-20, 00:09:05,VALID,1009.49,VALID,0,INVALID,111.061,VALID,0,VALID,23.6745,VALID,203,VALID,0,
2014-04-20, 00:10:05,VALID,1009.46,VALID,0,INVALID,111.046,VALID,0,VALID,23.6338,VALID,203,VALID,0,
2014-04-20, 00:11:05,VALID,1009.48,VALID,0,INVALID,111.077,VALID,0,VALID,23.655,VALID,203,VALID,0,
2014-04-20, 00:12:05,VALID,1009.5,VALID,0,INVALID,111.023,VALID,0,VALID,23.655,VALID,203,VALID,0,
2014-04-20, 00:13:05,VALID,1009.47,VALID,0,INVALID,111.039,VALID,0,VALID,23.6356,VALID,203,VALID,0,
2014-04-20, 00:14:05,VALID,1009.47,VALID,0,INVALID,111.023,VALID,0,VALID,23.6356,VALID,203,VALID,0,
2014-04-20, 00:15:05,VALID,1009.43,VALID,0,INVALID,111.031,VALID,0,VALID,23.6356,VALID,203,VALID,0,
2014-04-20, 00:16:05,VALID,1009.44,VALID,0,INVALID,111.054,VALID,0,VALID,23.6161,VALID,203,VALID,0,
2014-04-20, 00:17:05,VALID,1009.4,VALID,0,INVALID,111,VALID,0,VALID,23.5948,VALID,203,VALID,0,
2014-04-20, 00:18:05,VALID,1009.38,VALID,0,INVALID,111.008,VALID,0,VALID,23.6161,VALID,203,VALID,0,
2014-04-20, 00:19:05,VALID,1009.37,VALID,0,INVALID,111.008,VALID,0,VALID,23.6161,VALID,203,VALID,0,
2014-04-20, 00:20:05,VALID,1009.36,VALID,0,INVALID,111.008,VALID,0,VALID,23.5966,VALID,203,VALID,0,
2014-04-20, 00:21:05,VALID,1009.33,VALID,0,INVALID,110.993,VALID,0,VALID,23.5771,VALID,203,VALID,0,
2014-04-20, 00:22:05,VALID,1009.28,VALID,0,INVALID,111.016,VALID,0,VALID,23.5771,VALID,203,VALID,0,
2014-04-20, 00:23:05,VALID,1009.29,VALID,0,INVALID,111,VALID,0,VALID,23.5771,VALID,203,VALID,0,
2014-04-20, 00:24:05,VALID,1009.31,VALID,0,INVALID,110.985,VALID,0,VALID,23.5558,VALID,203,VALID,0,
2014-04-20, 00:25:05,VALID,1009.31,VALID,0,INVALID,110.978,VALID,0,VALID,23.5771,VALID,203,VALID,0,
2014-04-20, 00:26:05,VALID,1009.33,VALID,0,INVALID,111.016,VALID,0,VALID,23.5576,VALID,203,VALID,0,
2014-04-20, 00:27:05,VALID,1009.34,VALID,0,INVALID,111.016,VALID,0.112112,VALID,23.5576,VALID,203,VALID,0,
2014-04-20, 00:28:05,VALID,1009.36,VALID,0,INVALID,110.985,VALID,0,VALID,23.5381,VALID,203,VALID,0,
2014-04-20, 00:29:05,VALID,1009.38,VALID,0,INVALID,111.008,VALID,0,VALID,23.5186,VALID,203,VALID,0,
2014-04-20, 00:30:05,VALID,1009.39,VALID,0,INVALID,111.016,VALID,0,VALID,23.4779,VALID,203,VALID,0,
2014-04-20, 00:31:05,VALID,1009.35,VALID,0,INVALID,111.031,VALID,0,VALID,23.4797,VALID,203,VALID,0,
2014-04-20, 00:32:05,VALID,1009.34,VALID,0,INVALID,111.023,VALID,0,VALID,23.4992,VALID,203,VALID,0,
2014-04-20, 00:33:05,VALID,1009.36,VALID,0,INVALID,111.008,VALID,0,VALID,23.4992,VALID,203,VALID,0,
2014-04-20, 00:34:05,VALID,1009.36,VALID,0,INVALID,111.016,VALID,0,VALID,23.4992,VALID,203,VALID,0,
2014-04-20, 00:35:05,VALID,1009.35,VALID,0,INVALID,110.962,VALID,0,VALID,23.4992,VALID,203,VALID,0,
2014-04-20, 00:36:05,VALID,1009.34,VALID,0,INVALID,110.955,VALID,0,VALID,23.5186,VALID,203,VALID,0,
2014-04-20, 00:37:05,VALID,1009.37,VALID,0,INVALID,110.947,VALID,0,VALID,23.5186,VALID,203,VALID,0,
2014-04-20, 00:38:04,VALID,1009.37,VALID,0,INVALID,110.955,VALID,0,VALID,23.4974,VALID,203,VALID,0,
2014-04-20, 00:39:04,VALID,1009.36,VALID,0,INVALID,110.978,VALID,0,VALID,23.4992,VALID,203,VALID,0,
2014-04-20, 00:40:04,VALID,1009.39,VALID,0,INVALID,110.955,VALID,0,VALID,23.4797,VALID,203,VALID,0,
2014-04-20, 00:41:04,VALID,1009.4,VALID,0,INVALID,110.955,VALID,0,VALID,23.4992,VALID,203,VALID,0,
2014-04-20, 00:42:04,VALID,1009.37,VALID,0,INVALID,110.909,VALID,0,VALID,23.4992,VALID,203,VALID,0,
2014-04-20, 00:43:04,VALID,1009.35,VALID,0,INVALID,110.901,VALID,0,VALID,23.5186,VALID,203,VALID,0,
2014-04-20, 00:44:04,VALID,1009.32,VALID,0,INVALID,110.909,VALID,0,VALID,23.5381,VALID,203,VALID,0,
2014-04-20, 00:45:04,VALID,1009.33,VALID,0,INVALID,110.894,VALID,0,VALID,23.5186,VALID,203,VALID,0,
2014-04-20, 00:46:04,VALID,1009.32,VALID,0,INVALID,110.955,VALID,0,VALID,23.5186,VALID,203,VALID,0,
2014-04-20, 00:47:04,VALID,1009.31,VALID,0,INVALID,110.886,VALID,0,VALID,23.4974,VALID,203,VALID,0,
2014-04-20, 00:48:04,VALID,1009.29,VALID,0,INVALID,110.871,VALID,0,VALID,23.5186,VALID,203,VALID,0,
2014-04-20, 00:49:04,VALID,1009.28,VALID,0,INVALID,110.871,VALID,0,VALID,23.5381,VALID,203,VALID,0,
2014-04-20, 00:50:04,VALID,1009.24,VALID,0,INVALID,110.856,VALID,0,VALID,23.5381,VALID,203,VALID,0,
2014-04-20, 00:51:04,VALID,1009.26,VALID,0,INVALID,110.84,VALID,0,VALID,23.5381,VALID,203,VALID,0,
2014-04-20, 00:52:04,VALID,1009.26,VALID,0,INVALID,110.878,VALID,0,VALID,23.4779,VALID,203,VALID,0,
2014-04-20, 00:53:04,VALID,1009.25,VALID,0,INVALID,110.901,VALID,0,VALID,23.4602,VALID,203,VALID,0,
2014-04-20, 00:54:04,VALID,1009.25,VALID,0,INVALID,110.894,VALID,0,VALID,23.4602,VALID,203,VALID,0,
2014-04-20, 00:55:04,VALID,1009.26,VALID,0,INVALID,110.901,VALID,0,VALID,23.4407,VALID,203,VALID,0,
2014-04-20, 00:56:04,VALID,1009.26,VALID,0,INVALID,110.939,VALID,0,VALID,23.4212,VALID,203,VALID,0,
2014-04-20, 00:57:04,VALID,1009.26,VALID,0,INVALID,110.978,VALID,0,VALID,23.4017,VALID,203,VALID,0,
2014-04-20, 00:58:04,VALID,1009.27,VALID,0,INVALID,110.978,VALID,0,VALID,23.4017,VALID,203,VALID,0,
2014-04-20, 00:59:04,VALID,1009.25,VALID,0,INVALID,110.97,VALID,0,VALID,23.361,VALID,203,VALID,0,
2014-04-20, 01:00:04,VALID,1009.25,VALID,0,INVALID,110.917,VALID,0,VALID,23.4212,VALID,203,VALID,0,
2014-04-20, 01:01:04,VALID,1009.22,VALID,0,INVALID,110.871,VALID,0,VALID,23.4602,VALID,203,VALID,0,
2014-04-20, 01:02:04,VALID,1009.2,VALID,0,INVALID,110.878,VALID,0.112112,VALID,23.4779,VALID,203,VALID,0,
2014-04-20, 01:03:04,VALID,1009.23,VALID,0,INVALID,110.84,VALID,0,VALID,23.5186,VALID,203,VALID,0,
2014-04-20, 01:04:04,VALID,1009.21,VALID,0,INVALID,110.802,VALID,0,VALID,23.5186,VALID,203,VALID,0,
2014-04-20, 01:05:04,VALID,1009.24,VALID,0,INVALID,110.795,VALID,0,VALID,23.5381,VALID,203,VALID,0,
2014-04-20, 01:06:04,VALID,1009.24,VALID,0,INVALID,110.772,VALID,0,VALID,23.5381,VALID,203,VALID,0,
2014-04-20, 01:07:04,VALID,1009.24,VALID,0,INVALID,110.756,VALID,0,VALID,23.5576,VALID,203,VALID,0,
2014-04-20, 01:08:04,VALID,1009.2,VALID,0,INVALID,110.779,VALID,0,VALID,23.5576,VALID,203,VALID,0,
2014-04-20, 01:09:04,VALID,1009.23,VALID,0,INVALID,110.756,VALID,0,VALID,23.5381,VALID,203,VALID,0,
2014-04-20, 01:10:04,VALID,1009.19,VALID,0,INVALID,110.795,VALID,0,VALID,23.5594,VALID,203,VALID,0,
2014-04-20, 01:11:04,VALID,1009.17,VALID,0,INVALID,110.756,VALID,0,VALID,23.5576,VALID,203,VALID,0,
2014-04-20, 01:12:04,VALID,1009.16,VALID,0,INVALID,110.756,VALID,0,VALID,23.5771,VALID,203,VALID,0,
2014-04-20, 01:13:04,VALID,1009.13,VALID,0,INVALID,110.734,VALID,0,VALID,23.5966,VALID,203,VALID,0,
2014-04-20, 01:14:04,VALID,1009.15,VALID,0,INVALID,110.718,VALID,0,VALID,23.5966,VALID,203,VALID,0,
2014-04-20, 01:15:04,VALID,1009.13,VALID,0,INVALID,110.734,VALID,0,VALID,23.6161,VALID,203,VALID,0,
2014-04-20, 01:16:04,VALID,1009.14,VALID,0,INVALID,110.741,VALID,0,VALID,23.6356,VALID,203,VALID,0,
2014-04-20, 01:17:04,VALID,1009.1,VALID,0,INVALID,110.726,VALID,0,VALID,23.6356,VALID,203,VALID,0,
2014-04-20, 01:18:04,VALID,1009.09,VALID,0,INVALID,110.756,VALID,0,VALID,23.6161,VALID,203,VALID,0,
2014-04-20, 01:19:04,VALID,1009.07,VALID,0,INVALID,110.833,VALID,0,VALID,23.5966,VALID,203,VALID,0,
2014-04-20, 01:20:04,VALID,1009.04,VALID,0,INVALID,110.825,VALID,0,VALID,23.5771,VALID,203,VALID,0,
2014-04-20, 01:21:04,VALID,1008.98,VALID,0,INVALID,110.871,VALID,0,VALID,23.5576,VALID,203,VALID,0,
2014-04-20, 01:22:04,VALID,1008.95,VALID,0,INVALID,110.848,VALID,0,VALID,23.5771,VALID,203,VALID,0,
2014-04-20, 01:23:04,VALID,1008.95,VALID,0,INVALID,110.878,VALID,0.112112,VALID,23.5771,VALID,203,VALID,0,
2014-04-20, 01:24:04,VALID,1008.93,VALID,0,INVALID,110.894,VALID,0,VALID,23.5771,VALID,203,VALID,0,
2014-04-20, 01:25:04,VALID,1008.9,VALID,0,INVALID,110.871,VALID,0,VALID,23.5771,VALID,203,VALID,0,
2014-04-20, 01:26:04,VALID,1008.9,VALID,0,INVALID,110.878,VALID,0,VALID,23.6161,VALID,203,VALID,0,
2014-04-20, 01:27:04,VALID,1008.9,VALID,0,INVALID,110.863,VALID,0,VALID,23.5753,VALID,203,VALID,0,
2014-04-20, 01:28:04,VALID,1008.9,VALID,0,INVALID,110.901,VALID,0,VALID,23.5771,VALID,203,VALID,0,
2014-04-20, 01:29:04,VALID,1008.89,VALID,0,INVALID,110.863,VALID,0,VALID,23.5966,VALID,203,VALID,0,
2014-04-20, 01:30:04,VALID,1008.87,VALID,0,INVALID,110.863,VALID,0,VALID,23.5753,VALID,203,VALID,0,
2014-04-20, 01:31:04,VALID,1008.89,VALID,0,INVALID,110.886,VALID,0,VALID,23.6161,VALID,203,VALID,0,
2014-04-20, 01:32:04,VALID,1008.88,VALID,0,INVALID,110.886,VALID,0,VALID,23.5966,VALID,203,VALID,0,
2014-04-20, 01:33:04,VALID,1008.9,VALID,0,INVALID,110.878,VALID,0,VALID,23.5771,VALID,203,VALID,0,
2014-04-20, 01:34:04,VALID,1008.91,VALID,0,INVALID,110.947,VALID,0,VALID,23.5576,VALID,203,VALID,0,
2014-04-20, 01:35:04,VALID,1008.89,VALID,0,INVALID,110.909,VALID,0,VALID,23.5576,VALID,203,VALID,0,
2014-04-20, 01:36:04,VALID,1008.9,VALID,0,INVALID,110.955,VALID,0,VALID,23.5381,VALID,203,VALID,0,
2014-04-20, 01:37:04,VALID,1008.89,VALID,0,INVALID,110.932,VALID,0,VALID,23.5381,VALID,203,VALID,0,
2014-04-20, 01:38:04,VALID,1008.88,VALID,0,INVALID,110.909,VALID,0,VALID,23.5186,VALID,203,VALID,0,
2014-04-20, 01:39:04,VALID,1008.85,VALID,0,INVALID,110.955,VALID,0,VALID,23.5186,VALID,203,VALID,0,
2014-04-20, 01:40:04,VALID,1008.83,VALID,0,INVALID,110.978,VALID,0,VALID,23.4992,VALID,203,VALID,0,
2014-04-20, 01:41:04,VALID,1008.81,VALID,0,INVALID,110.978,VALID,0,VALID,23.4992,VALID,203,VALID,0,
2014-04-20, 01:42:04,VALID,1008.84,VALID,0,INVALID,110.955,VALID,0,VALID,23.4797,VALID,203,VALID,0,
2014-04-20, 01:43:04,VALID,1008.81,VALID,0,INVALID,110.962,VALID,0,VALID,23.4602,VALID,203,VALID,0,
2014-04-20, 01:44:04,VALID,1008.8,VALID,0,INVALID,111,VALID,0,VALID,23.4407,VALID,203,VALID,0,
2014-04-20, 01:45:04,VALID,1008.79,VALID,0,INVALID,110.955,VALID,0,VALID,23.4212,VALID,203,VALID,0,
2014-04-20, 01:46:04,VALID,1008.78,VALID,0,INVALID,110.955,VALID,0,VALID,23.4407,VALID,203,VALID,0,
2014-04-20, 01:47:04,VALID,1008.76,VALID,0,INVALID,110.962,VALID,0,VALID,23.4212,VALID,203,VALID,0,
2014-04-20, 01:48:04,VALID,1008.76,VALID,0,INVALID,110.97,VALID,0,VALID,23.4017,VALID,203,VALID,0,
2014-04-20, 01:49:04,VALID,1008.77,VALID,0,INVALID,110.939,VALID,0,VALID,23.423,VALID,203,VALID,0,
2014-04-20, 01:50:04,VALID,1008.76,VALID,0,INVALID,110.955,VALID,0,VALID,23.3823,VALID,203,VALID,0,
2014-04-20, 01:51:04,VALID,1008.78,VALID,0,INVALID,110.955,VALID,0,VALID,23.384,VALID,203,VALID,0,
2014-04-20, 01:52:04,VALID,1008.76,VALID,0,INVALID,110.909,VALID,0,VALID,23.3823,VALID,203,VALID,0,
2014-04-20, 01:53:04,VALID,1008.76,VALID,0,INVALID,110.901,VALID,0,VALID,23.3823,VALID,203,VALID,0,
2014-04-20, 01:54:04,VALID,1008.72,VALID,0,INVALID,110.939,VALID,0,VALID,23.3628,VALID,203,VALID,0,
2014-04-20, 01:55:04,VALID,1008.73,VALID,0,INVALID,110.962,VALID,0,VALID,23.3433,VALID,203,VALID,0,
2014-04-20, 01:56:04,VALID,1008.71,VALID,0,INVALID,110.924,VALID,0,VALID,23.3238,VALID,203,VALID,0,
2014-04-20, 01:57:04,VALID,1008.73,VALID,0,INVALID,110.947,VALID,0,VALID,23.3238,VALID,203,VALID,0,
2014-04-20, 01:58:04,VALID,1008.75,VALID,0,INVALID,110.955,VALID,0,VALID,23.3043,VALID,203,VALID,0,
2014-04-20, 01:59:04,VALID,1008.74,VALID,0,INVALID,110.97,VALID,0,VALID,23.2848,VALID,203,VALID,0,
2014-04-20, 02:00:04,VALID,1008.74,VALID,0,INVALID,110.947,VALID,0,VALID,23.2459,VALID,203,VALID,0,
2014-04-20, 02:01:04,VALID,1008.76,VALID,0,INVALID,110.955,VALID,0,VALID,23.2671,VALID,203,VALID,0,
2014-04-20, 02:02:04,VALID,1008.74,VALID,0,INVALID,110.97,VALID,0,VALID,23.2264,VALID,203,VALID,0,
2014-04-20, 02:03:04,VALID,1008.74,VALID,0,INVALID,110.97,VALID,0,VALID,23.2264,VALID,203,VALID,0,
2014-04-20, 02:04:04,VALID,1008.7,VALID,0,INVALID,110.962,VALID,0,VALID,23.2069,VALID,203,VALID,0,
2014-04-20, 02:05:04,VALID,1008.71,VALID,0,INVALID,110.955,VALID,0,VALID,23.1874,VALID,203,VALID,0,
2014-04-20, 02:06:04,VALID,1008.7,VALID,0,INVALID,110.932,VALID,0,VALID,23.1874,VALID,203,VALID,0,
2014-04-20, 02:07:04,VALID,1008.7,VALID,0,INVALID,110.924,VALID,0,VALID,23.1679,VALID,203,VALID,0,
2014-04-20, 02:08:04,VALID,1008.69,VALID,0,INVALID,110.932,VALID,0,VALID,23.1485,VALID,203,VALID,0,
2014-04-20, 02:09:04,VALID,1008.68,VALID,0,INVALID,110.917,VALID,0,VALID,23.1679,VALID,203,VALID,0,
2014-04-20, 02:10:04,VALID,1008.68,VALID,0,INVALID,110.856,VALID,0,VALID,23.1485,VALID,203,VALID,0,
2014-04-20, 02:11:04,VALID,1008.69,VALID,0,INVALID,110.894,VALID,0,VALID,23.1485,VALID,203,VALID,0,
2014-04-20, 02:12:04,VALID,1008.71,VALID,0,INVALID,110.833,VALID,0,VALID,23.1485,VALID,203,VALID,0,
2014-04-20, 02:13:04,VALID,1008.7,VALID,0,INVALID,110.917,VALID,0,VALID,23.1095,VALID,203,VALID,0,
2014-04-20, 02:14:04,VALID,1008.71,VALID,0,INVALID,110.871,VALID,0,VALID,23.1095,VALID,203,VALID,0,
2014-04-20, 02:15:04,VALID,1008.71,VALID,0,INVALID,110.886,VALID,0,VALID,23.129,VALID,203,VALID,0,
2014-04-20, 02:16:04,VALID,1008.72,VALID,0,INVALID,110.787,VALID,0,VALID,23.1485,VALID,203,VALID,0,
2014-04-20, 02:17:04,VALID,1008.7,VALID,0,INVALID,110.764,VALID,0,VALID,23.1679,VALID,203,VALID,0,
2014-04-20, 02:18:04,VALID,1008.68,VALID,0,INVALID,110.81,VALID,0,VALID,23.1679,VALID,203,VALID,0,
2014-04-20, 02:19:04,VALID,1008.7,VALID,0,INVALID,110.787,VALID,0,VALID,23.1679,VALID,203,VALID,0,
2014-04-20, 02:20:04,VALID,1008.68,VALID,0,INVALID,110.764,VALID,0,VALID,23.1874,VALID,203,VALID,0,
2014-04-20, 02:21:04,VALID,1008.68,VALID,0,INVALID,110.772,VALID,0,VALID,23.1679,VALID,203,VALID,0,
2014-04-20, 02:22:04,VALID,1008.68,VALID,0,INVALID,110.787,VALID,0,VALID,23.1485,VALID,203,VALID,0,
2014-04-20, 02:23:04,VALID,1008.68,VALID,0,INVALID,110.787,VALID,0.112112,VALID,23.1272,VALID,203,VALID,0,
2014-04-20, 02:24:04,VALID,1008.71,VALID,0,INVALID,110.756,VALID,0,VALID,23.1679,VALID,202,VALID,0,
2014-04-20, 02:25:04,VALID,1008.71,VALID,0,INVALID,110.711,VALID,0,VALID,23.1874,VALID,197,VALID,0,
2014-04-20, 02:26:04,VALID,1008.71,VALID,0,INVALID,110.673,VALID,0,VALID,23.2069,VALID,197,VALID,0,
2014-04-20, 02:27:04,VALID,1008.7,VALID,0,INVALID,110.673,VALID,0,VALID,23.2069,VALID,197,VALID,0,
2014-04-20, 02:28:04,VALID,1008.68,VALID,0,INVALID,110.68,VALID,0,VALID,23.2069,VALID,197,VALID,0,
2014-04-20, 02:29:04,VALID,1008.68,VALID,0,INVALID,110.657,VALID,0,VALID,23.2264,VALID,197,VALID,0,
2014-04-20, 02:30:04,VALID,1008.65,VALID,0,INVALID,110.68,VALID,0,VALID,23.2264,VALID,197,VALID,0,
2014-04-20, 02:31:04,VALID,1008.67,VALID,0,INVALID,110.665,VALID,0,VALID,23.2264,VALID,197,VALID,0,
2014-04-20, 02:32:04,VALID,1008.66,VALID,0,INVALID,110.695,VALID,0,VALID,23.2069,VALID,197,VALID,0,
2014-04-20, 02:33:04,VALID,1008.68,VALID,0,INVALID,110.65,VALID,0,VALID,23.2264,VALID,197,VALID,0,
2014-04-20, 02:34:04,VALID,1008.67,VALID,0,INVALID,110.665,VALID,0.112112,VALID,23.2264,VALID,197,VALID,0,
2014-04-20, 02:35:04,VALID,1008.67,VALID,0,INVALID,110.673,VALID,0.112112,VALID,23.2264,VALID,197,VALID,0,
2014-04-20, 02:36:04,VALID,1008.64,VALID,0,INVALID,110.688,VALID,0,VALID,23.2264,VALID,197,VALID,0,
2014-04-20, 02:37:04,VALID,1008.64,VALID,0,INVALID,110.695,VALID,0.112112,VALID,23.2051,VALID,197,VALID,0,
2014-04-20, 02:38:04,VALID,1008.61,VALID,0,INVALID,110.695,VALID,0,VALID,23.2264,VALID,197,VALID,0,
2014-04-20, 02:39:04,VALID,1008.59,VALID,0,INVALID,110.703,VALID,0,VALID,23.2264,VALID,197,VALID,0,
2014-04-20, 02:40:04,VALID,1008.59,VALID,0,INVALID,110.711,VALID,0,VALID,23.2264,VALID,197,VALID,0,
2014-04-20, 02:41:04,VALID,1008.57,VALID,0,INVALID,110.688,VALID,0,VALID,23.2264,VALID,197,VALID,0,
2014-04-20, 02:42:04,VALID,1008.58,VALID,0,INVALID,110.711,VALID,0,VALID,23.2051,VALID,197,VALID,0,
2014-04-20, 02:43:04,VALID,1008.59,VALID,0,INVALID,110.68,VALID,0,VALID,23.2459,VALID,197,VALID,0,
2014-04-20, 02:44:04,VALID,1008.62,VALID,0,INVALID,110.673,VALID,0,VALID,23.2459,VALID,197,VALID,0,
2014-04-20, 02:45:04,VALID,1008.61,VALID,0,INVALID,110.68,VALID,0.112112,VALID,23.2051,VALID,197,VALID,0,
2014-04-20, 02:46:04,VALID,1008.63,VALID,0,INVALID,110.695,VALID,0,VALID,23.2459,VALID,197,VALID,0,
2014-04-20, 02:47:04,VALID,1008.65,VALID,0,INVALID,110.665,VALID,0,VALID,23.2459,VALID,197,VALID,0,
2014-04-20, 02:48:04,VALID,1008.66,VALID,0,INVALID,110.703,VALID,0,VALID,23.2654,VALID,197,VALID,0,
2014-04-20, 02:49:04,VALID,1008.63,VALID,0,INVALID,110.673,VALID,0,VALID,23.2459,VALID,197,VALID,0,
2014-04-20, 02:50:04,VALID,1008.67,VALID,0,INVALID,110.688,VALID,0.112112,VALID,23.2459,VALID,197,VALID,0,
2014-04-20, 02:51:04,VALID,1008.66,VALID,0,INVALID,110.703,VALID,0,VALID,23.2264,VALID,197,VALID,0,
2014-04-20, 02:52:04,VALID,1008.66,VALID,0,INVALID,110.726,VALID,0,VALID,23.2069,VALID,197,VALID,0,
2014-04-20, 02:53:04,VALID,1008.64,VALID,0,INVALID,110.711,VALID,0,VALID,23.2069,VALID,197,VALID,0,
2014-04-20, 02:54:04,VALID,1008.65,VALID,0,INVALID,110.703,VALID,0,VALID,23.1874,VALID,197,VALID,0,
2014-04-20, 02:55:04,VALID,1008.62,VALID,0,INVALID,110.711,VALID,0.112112,VALID,23.2069,VALID,197,VALID,0,
2014-04-20, 02:56:04,VALID,1008.66,VALID,0,INVALID,110.734,VALID,0,VALID,23.2069,VALID,197,VALID,0,
2014-04-20, 02:57:04,VALID,1008.62,VALID,0,INVALID,110.718,VALID,0,VALID,23.1874,VALID,197,VALID,0,
2014-04-20, 02:58:04,VALID,1008.65,VALID,0,INVALID,110.726,VALID,0,VALID,23.2069,VALID,197,VALID,0,
2014-04-20, 02:59:04,VALID,1008.64,VALID,0,INVALID,110.673,VALID,0,VALID,23.2069,VALID,197,VALID,0,
2014-04-20, 03:00:04,VALID,1008.64,VALID,0,INVALID,110.619,VALID,0,VALID,23.2459,VALID,197,VALID,0,
2014-04-20, 03:01:04,VALID,1008.66,VALID,0,INVALID,110.612,VALID,0,VALID,23.2246,VALID,197,VALID,0,
2014-04-20, 03:02:04,VALID,1008.64,VALID,0,INVALID,110.619,VALID,0,VALID,23.2654,VALID,197,VALID,0,
2014-04-20, 03:03:04,VALID,1008.64,VALID,0,INVALID,110.619,VALID,0,VALID,23.2654,VALID,197,VALID,0,
2014-04-20, 03:04:04,VALID,1008.64,VALID,0,INVALID,110.604,VALID,0.112112,VALID,23.2654,VALID,197,VALID,0,
2014-04-20, 03:05:04,VALID,1008.62,VALID,0,INVALID,110.573,VALID,0.112112,VALID,23.2441,VALID,197,VALID,0,
2014-04-20, 03:06:04,VALID,1008.62,VALID,0,INVALID,110.604,VALID,0,VALID,23.2654,VALID,197,VALID,0,
2014-04-20, 03:07:04,VALID,1008.61,VALID,0,INVALID,110.627,VALID,0,VALID,23.2459,VALID,197,VALID,0,
2014-04-20, 03:08:04,VALID,1008.6,VALID,0,INVALID,110.619,VALID,0,VALID,23.2264,VALID,197,VALID,0,
2014-04-20, 03:09:04,VALID,1008.56,VALID,0,INVALID,110.627,VALID,0,VALID,23.2264,VALID,197,VALID,0,
2014-04-20, 03:10:04,VALID,1008.56,VALID,0,INVALID,110.665,VALID,0,VALID,23.2051,VALID,197,VALID,0,
2014-04-20, 03:11:04,VALID,1008.57,VALID,0,INVALID,110.657,VALID,0,VALID,23.2264,VALID,197,VALID,0,
2014-04-20, 03:12:04,VALID,1008.55,VALID,0,INVALID,110.665,VALID,0,VALID,23.1874,VALID,197,VALID,0,
2014-04-20, 03:13:04,VALID,1008.54,VALID,0,INVALID,110.673,VALID,0,VALID,23.1874,VALID,197,VALID,0,
2014-04-20, 03:14:04,VALID,1008.54,VALID,0,INVALID,110.68,VALID,0,VALID,23.1662,VALID,197,VALID,0,
2014-04-20, 03:15:04,VALID,1008.54,VALID,0,INVALID,110.718,VALID,0,VALID,23.1679,VALID,197,VALID,0,
2014-04-20, 03:16:04,VALID,1008.53,VALID,0,INVALID,110.711,VALID,0.112112,VALID,23.1272,VALID,197,VALID,0,
2014-04-20, 03:17:04,VALID,1008.56,VALID,0,INVALID,110.688,VALID,0,VALID,23.129,VALID,197,VALID,0,
2014-04-20, 03:18:04,VALID,1008.55,VALID,0,INVALID,110.741,VALID,0,VALID,23.1485,VALID,197,VALID,0,
2014-04-20, 03:19:04,VALID,1008.54,VALID,0,INVALID,110.749,VALID,0,VALID,23.129,VALID,197,VALID,0,
2014-04-20, 03:20:04,VALID,1008.54,VALID,0,INVALID,110.779,VALID,0,VALID,23.129,VALID,197,VALID,0,
2014-04-20, 03:21:04,VALID,1008.56,VALID,0,INVALID,110.764,VALID,0.112112,VALID,23.129,VALID,197,VALID,0,
2014-04-20, 03:22:04,VALID,1008.54,VALID,0,INVALID,110.764,VALID,0,VALID,23.129,VALID,197,VALID,0,
2014-04-20, 03:23:04,VALID,1008.57,VALID,0,INVALID,110.718,VALID,0,VALID,23.1485,VALID,197,VALID,0,
2014-04-20, 03:24:04,VALID,1008.56,VALID,0,INVALID,110.703,VALID,0,VALID,23.1485,VALID,197,VALID,0,
2014-04-20, 03:25:04,VALID,1008.54,VALID,0,INVALID,110.726,VALID,0,VALID,23.129,VALID,197,VALID,0,
2014-04-20, 03:26:04,VALID,1008.52,VALID,0,INVALID,110.718,VALID,0,VALID,23.1077,VALID,197,VALID,0,
2014-04-20, 03:27:04,VALID,1008.51,VALID,0,INVALID,110.718,VALID,0,VALID,23.1502,VALID,197,VALID,0,
2014-04-20, 03:28:04,VALID,1008.51,VALID,0,INVALID,110.711,VALID,0,VALID,23.129,VALID,197,VALID,0,
2014-04-20, 03:29:04,VALID,1008.47,VALID,0,INVALID,110.688,VALID,0,VALID,23.129,VALID,197,VALID,0,
2014-04-20, 03:30:04,VALID,1008.43,VALID,0,INVALID,110.673,VALID,0,VALID,23.1485,VALID,197,VALID,0,
2014-04-20, 03:31:04,VALID,1008.4,VALID,0,INVALID,110.642,VALID,0,VALID,23.1485,VALID,197,VALID,0,
2014-04-20, 03:32:04,VALID,1008.35,VALID,0,INVALID,110.619,VALID,0,VALID,23.1485,VALID,197,VALID,0,
2014-04-20, 03:33:04,VALID,1008.38,VALID,0,INVALID,110.619,VALID,0.112112,VALID,23.1679,VALID,197,VALID,0,
2014-04-20, 03:34:04,VALID,1008.35,VALID,0,INVALID,110.612,VALID,0,VALID,23.1679,VALID,197,VALID,0,
2014-04-20, 03:35:04,VALID,1008.37,VALID,0,INVALID,110.596,VALID,0,VALID,23.1874,VALID,197,VALID,0,
2014-04-20, 03:36:04,VALID,1008.4,VALID,0,INVALID,110.619,VALID,0,VALID,23.1679,VALID,197,VALID,0,
2014-04-20, 03:37:04,VALID,1008.4,VALID,0,INVALID,110.612,VALID,0,VALID,23.1485,VALID,197,VALID,0,
2014-04-20, 03:38:04,VALID,1008.38,VALID,0,INVALID,110.619,VALID,0,VALID,23.1485,VALID,197,VALID,0,
2014-04-20, 03:39:04,VALID,1008.36,VALID,0,INVALID,110.619,VALID,0,VALID,23.1485,VALID,197,VALID,0,
2014-04-20, 03:40:04,VALID,1008.36,VALID,0,INVALID,110.573,VALID,0,VALID,23.1679,VALID,197,VALID,0,
2014-04-20, 03:41:04,VALID,1008.37,VALID,0,INVALID,110.566,VALID,0,VALID,23.1679,VALID,197,VALID,0,
2014-04-20, 03:42:04,VALID,1008.39,VALID,0,INVALID,110.573,VALID,0,VALID,23.1679,VALID,197,VALID,0,
2014-04-20, 03:43:04,VALID,1008.4,VALID,0,INVALID,110.566,VALID,0,VALID,23.1679,VALID,197,VALID,0,
2014-04-20, 03:44:04,VALID,1008.39,VALID,0,INVALID,110.505,VALID,0,VALID,23.1679,VALID,197,VALID,0,
2014-04-20, 03:45:04,VALID,1008.41,VALID,0,INVALID,110.52,VALID,0,VALID,23.1874,VALID,197,VALID,0,
2014-04-20, 03:46:04,VALID,1008.43,VALID,0,INVALID,110.52,VALID,0,VALID,23.1874,VALID,197,VALID,0,
2014-04-20, 03:47:04,VALID,1008.48,VALID,0,INVALID,110.512,VALID,0,VALID,23.1874,VALID,197,VALID,0,
2014-04-20, 03:48:04,VALID,1008.45,VALID,0,INVALID,110.512,VALID,0,VALID,23.1679,VALID,197,VALID,0,
2014-04-20, 03:49:04,VALID,1008.49,VALID,0,INVALID,110.505,VALID,0,VALID,23.1467,VALID,197,VALID,0,
2014-04-20, 03:50:04,VALID,1008.51,VALID,0,INVALID,110.512,VALID,0,VALID,23.1679,VALID,197,VALID,0,
2014-04-20, 03:51:04,VALID,1008.51,VALID,0,INVALID,110.482,VALID,0,VALID,23.1679,VALID,197,VALID,0,
2014-04-20, 03:52:04,VALID,1008.5,VALID,0,INVALID,110.505,VALID,0,VALID,23.1679,VALID,197,VALID,0,
2014-04-20, 03:53:04,VALID,1008.52,VALID,0,INVALID,110.497,VALID,0,VALID,23.1679,VALID,197,VALID,0,
2014-04-20, 03:54:04,VALID,1008.53,VALID,0,INVALID,110.505,VALID,0,VALID,23.1679,VALID,197,VALID,0,